| time (UTC) | temp F | wind direction | speed MPH | gust MPH | rain 1hr in | rain 24hr in | rain mn in | humidity % | barometer mb |
| 20260508175208 | 61 | 210 | 17.0 | 20.0 | 0.00 | 0.00 | 0.00 | 57 | 1009.6 |
| 20260508174706 | 61 | 240 | 15.0 | 16.0 | 0.00 | 0.00 | 0.00 | 56 | 1010.1 |
| 20260508174203 | 61 | 230 | 9.0 | 10.0 | 0.00 | 0.00 | 0.00 | 56 | 1009.8 |
| 20260508173659 | 60 | 223 | 11.0 | 13.0 | 0.00 | 0.00 | 0.00 | 60 | 1009.9 |
| 20260508173155 | 60 | 224 | 13.0 | 15.0 | 0.00 | 0.00 | 0.00 | 58 | 1010.1 |
| 20260508172652 | 60 | 210 | 9.0 | 11.0 | 0.00 | 0.00 | 0.00 | 61 | 1009.9 |
| 20260508172149 | 60 | 222 | 12.0 | 14.0 | 0.00 | 0.00 | 0.00 | 60 | 1010.2 |
| 20260508171645 | 61 | 227 | 11.0 | 16.0 | 0.00 | 0.00 | 0.00 | 62 | 1010.2 |
| 20260508171141 | 60 | 212 | 11.0 | 13.0 | 0.00 | 0.00 | 0.00 | 60 | 1010.2 |
| 20260508170639 | 60 | 214 | 10.0 | 14.0 | 0.00 | 0.00 | 0.00 | 62 | 1010.3 |
| 20260508170136 | 59 | 230 | 10.0 | 11.0 | 0.00 | 0.00 | 0.00 | 62 | 1010.3 |
| 20260508165633 | 59 | 231 | 8.0 | 10.0 | 0.00 | 0.00 | 0.00 | 62 | 1010.6 |
| 20260508165131 | 59 | 217 | 8.0 | 9.0 | 0.00 | 0.00 | 0.00 | 62 | 1010.7 |
| 20260508164626 | 59 | 248 | 7.0 | 8.0 | 0.00 | 0.00 | 0.00 | 63 | 1010.8 |
| 20260508164118 | 59 | 249 | 10.0 | 13.0 | 0.00 | 0.00 | 0.00 | 66 | 1010.7 |
| 20260508163616 | 57 | 221 | 14.0 | 15.0 | 0.00 | 0.00 | 0.00 | 67 | 1010.9 |
| 20260508163112 | 58 | 217 | 14.0 | 15.0 | 0.00 | 0.00 | 0.00 | 66 | 1010.8 |
| 20260508162609 | 57 | 246 | 9.0 | 10.0 | 0.00 | 0.00 | 0.00 | 65 | 1010.9 |
| 20260508162106 | 57 | 192 | 8.0 | 10.0 | 0.00 | 0.00 | 0.00 | 66 | 1011.3 |
| 20260508161603 | 57 | 242 | 11.0 | 13.0 | 0.00 | 0.00 | 0.00 | 69 | 1011.2 |
| 20260508161100 | 57 | 224 | 11.0 | 13.0 | 0.00 | 0.00 | 0.00 | 67 | 1011.3 |
| 20260508160559 | 57 | 226 | 12.0 | 13.0 | 0.00 | 0.00 | 0.00 | 66 | 1011.4 |
| 20260508160055 | 56 | 221 | 9.0 | 10.0 | 0.00 | 0.00 | 0.00 | 67 | 1011.1 |
| 20260508155552 | 56 | 199 | 11.0 | 11.0 | 0.00 | 0.00 | 0.00 | 69 | 1011.2 |
| 20260508155049 | 56 | 212 | 5.0 | 6.0 | 0.00 | 0.00 | 0.00 | 67 | 1011.2 |
| 20260508154546 | 56 | 235 | 7.0 | 8.0 | 0.00 | 0.00 | 0.00 | 67 | 1011.2 |
| 20260508154043 | 56 | 235 | 10.0 | 10.0 | 0.00 | 0.00 | 0.00 | 65 | 1011.4 |
| 20260508153540 | 56 | 222 | 7.0 | 8.0 | 0.00 | 0.00 | 0.00 | 67 | 1011.2 |
| 20260508153036 | 55 | 241 | 10.0 | 10.0 | 0.00 | 0.00 | 0.00 | 67 | 1011.4 |
| 20260508152534 | 55 | 216 | 9.0 | 10.0 | 0.00 | 0.00 | 0.00 | 68 | 1011.3 |
| 20260508152029 | 56 | 204 | 7.0 | 8.0 | 0.00 | 0.00 | 0.00 | 69 | 1011.2 |
| 20260508151526 | 55 | 220 | 5.0 | 5.0 | 0.00 | 0.00 | 0.00 | 71 | 1011.3 |
| 20260508151022 | 55 | 186 | 7.0 | 8.0 | 0.00 | 0.00 | 0.00 | 70 | 1011.2 |
| 20260508150520 | 55 | 225 | 9.0 | 11.0 | 0.00 | 0.00 | 0.00 | 70 | 1011.2 |
| 20260508150015 | 55 | 224 | 7.0 | 10.0 | 0.00 | 0.00 | 0.00 | 68 | 1011.2 |
| 20260508145513 | 56 | 200 | 8.0 | 9.0 | 0.00 | 0.00 | 0.00 | 71 | 1011.2 |
| 20260508145009 | 55 | 232 | 5.0 | 7.0 | 0.00 | 0.00 | 0.00 | 67 | 1011.4 |
| 20260508144506 | 55 | 218 | 4.0 | 6.0 | 0.00 | 0.00 | 0.00 | 69 | 1011.2 |
| 20260508144003 | 55 | 236 | 2.0 | 2.0 | 0.00 | 0.00 | 0.00 | 68 | 1011.4 |
| 20260508143500 | 55 | 344 | 3.0 | 3.0 | 0.00 | 0.00 | 0.00 | 68 | 1011.1 |
| 20260508142951 | 55 | 61 | 2.0 | 2.0 | 0.00 | 0.00 | 0.00 | 67 | 1011.4 |
| 20260508142449 | 55 | 294 | 3.0 | 3.0 | 0.00 | 0.00 | 0.00 | 67 | 1011.2 |
| 20260508141945 | 55 | 22 | 0.0 | 0.0 | 0.00 | 0.00 | 0.00 | 69 | 1011.1 |
| 20260508141442 | 57 | 308 | 5.0 | 7.0 | 0.00 | 0.00 | 0.00 | 66 | 1011.1 |
| 20260508140939 | 55 | 9 | 1.0 | 1.0 | 0.00 | 0.00 | 0.00 | 68 | 1011.2 |
| 20260508140436 | 55 | 216 | 4.0 | 6.0 | 0.00 | 0.00 | 0.00 | 69 | 1011.6 |
| 20260508135932 | 55 | 245 | 5.0 | 6.0 | 0.00 | 0.00 | 0.00 | 69 | 1011.5 |
| 20260508135429 | 55 | 221 | 9.0 | 9.0 | 0.00 | 0.00 | 0.00 | 70 | 1011.3 |
| 20260508134925 | 54 | 236 | 5.0 | 6.0 | 0.00 | 0.00 | 0.00 | 70 | 1011.4 |
| 20260508134421 | 54 | 244 | 7.0 | 8.0 | 0.00 | 0.00 | 0.00 | 71 | 1011.8 |
| 20260508133918 | 53 | 292 | 4.0 | 5.0 | 0.00 | 0.00 | 0.00 | 72 | 1011.4 |
| 20260508133416 | 53 | 242 | 5.0 | 6.0 | 0.00 | 0.00 | 0.00 | 72 | 1011.5 |
| 20260508132913 | 53 | 281 | 3.0 | 3.0 | 0.00 | 0.00 | 0.00 | 72 | 1011.6 |
| 20260508132411 | 53 | 313 | 5.0 | 6.0 | 0.00 | 0.00 | 0.00 | 72 | 1011.4 |
| 20260508131907 | 53 | 302 | 7.0 | 8.0 | 0.00 | 0.00 | 0.00 | 73 | 1011.6 |
| 20260508131403 | 52 | 306 | 8.0 | 8.0 | 0.00 | 0.00 | 0.00 | 75 | 1011.6 |
| 20260508130900 | 52 | 246 | 5.0 | 6.0 | 0.00 | 0.00 | 0.00 | 75 | 1011.5 |
| 20260508130356 | 52 | 249 | 7.0 | 8.0 | 0.00 | 0.00 | 0.00 | 76 | 1011.5 |
| 20260508125852 | 52 | 261 | 7.0 | 9.0 | 0.00 | 0.00 | 0.00 | 75 | 1011.6 |
| 20260508125348 | 51 | 339 | 6.0 | 7.0 | 0.00 | 0.00 | 0.00 | 76 | 1011.7 |
| 20260508124847 | 51 | 276 | 6.0 | 7.0 | 0.00 | 0.00 | 0.00 | 76 | 1011.5 |
| 20260508124343 | 51 | 262 | 4.0 | 5.0 | 0.00 | 0.00 | 0.00 | 76 | 1011.6 |
| 20260508123842 | 51 | 251 | 10.0 | 11.0 | 0.00 | 0.00 | 0.00 | 77 | 1011.6 |
| 20260508123340 | 50 | 239 | 5.0 | 6.0 | 0.00 | 0.00 | 0.00 | 77 | 1012.0 |
| 20260508122836 | 50 | 244 | 9.0 | 9.0 | 0.00 | 0.00 | 0.00 | 78 | 1011.7 |
| 20260508122333 | 50 | 235 | 11.0 | 14.0 | 0.00 | 0.00 | 0.00 | 78 | 1011.9 |
| 20260508121830 | 50 | 248 | 5.0 | 7.0 | 0.00 | 0.00 | 0.00 | 79 | 1011.8 |
| 20260508121329 | 49 | 260 | 9.0 | 10.0 | 0.00 | 0.00 | 0.00 | 79 | 1011.6 |
| 20260508120826 | 49 | 242 | 8.0 | 9.0 | 0.00 | 0.00 | 0.00 | 79 | 1011.4 |
| 20260508120324 | 49 | 240 | 5.0 | 7.0 | 0.00 | 0.00 | 0.00 | 79 | 1011.7 |
| 20260508115821 | 49 | 236 | 8.0 | 8.0 | 0.00 | 0.00 | 0.00 | 81 | 1011.4 |
| 20260508115318 | 48 | 294 | 3.0 | 3.0 | 0.00 | 0.00 | 0.00 | 81 | 1011.3 |
| 20260508114815 | 48 | 272 | 4.0 | 5.0 | 0.00 | 0.00 | 0.00 | 81 | 1011.0 |
| 20260508114311 | 48 | 251 | 5.0 | 6.0 | 0.00 | 0.00 | 0.00 | 81 | 1011.1 |
| 20260508113808 | 48 | 244 | 3.0 | 3.0 | 0.00 | 0.00 | 0.00 | 83 | 1011.3 |
| 20260508113307 | 47 | 216 | 4.0 | 5.0 | 0.00 | 0.00 | 0.00 | 83 | 1010.9 |
| 20260508112803 | 47 | 224 | 3.0 | 3.0 | 0.00 | 0.00 | 0.00 | 85 | 1011.2 |
| 20260508112300 | 46 | 229 | 4.0 | 5.0 | 0.00 | 0.00 | 0.00 | 86 | 1011.1 |
| 20260508111756 | 46 | 224 | 4.0 | 5.0 | 0.00 | 0.00 | 0.00 | 86 | 1011.2 |
| 20260508111254 | 46 | 215 | 3.0 | 3.0 | 0.00 | 0.00 | 0.00 | 86 | 1011.0 |
| 20260508110750 | 46 | 228 | 3.0 | 3.0 | 0.00 | 0.00 | 0.00 | 86 | 1011.0 |
| 20260508110248 | 46 | 234 | 4.0 | 5.0 | 0.00 | 0.00 | 0.00 | 86 | 1010.9 |
| 20260508105742 | 46 | 233 | 5.0 | 6.0 | 0.00 | 0.00 | 0.00 | 86 | 1010.9 |
| 20260508105239 | 46 | 233 | 4.0 | 5.0 | 0.00 | 0.00 | 0.00 | 85 | 1010.8 |
| 20260508104736 | 46 | 214 | 5.0 | 6.0 | 0.00 | 0.00 | 0.00 | 85 | 1010.8 |
| 20260508104233 | 46 | 211 | 5.0 | 5.0 | 0.00 | 0.00 | 0.00 | 85 | 1010.7 |
| 20260508103731 | 46 | 204 | 7.0 | 7.0 | 0.00 | 0.00 | 0.00 | 86 | 1010.9 |
| 20260508103227 | 45 | 208 | 6.0 | 7.0 | 0.00 | 0.00 | 0.00 | 86 | 1010.7 |
| 20260508102724 | 45 | 212 | 6.0 | 6.0 | 0.00 | 0.00 | 0.00 | 87 | 1010.5 |
| 20260508102222 | 45 | 208 | 4.0 | 5.0 | 0.00 | 0.00 | 0.00 | 86 | 1010.8 |
| 20260508101719 | 46 | 224 | 3.0 | 3.0 | 0.00 | 0.00 | 0.00 | 86 | 1010.8 |
| 20260508101217 | 46 | 217 | 4.0 | 5.0 | 0.00 | 0.00 | 0.00 | 86 | 1010.9 |
| 20260508100714 | 46 | 223 | 4.0 | 5.0 | 0.00 | 0.00 | 0.00 | 85 | 1011.0 |
| 20260508100212 | 46 | 223 | 5.0 | 6.0 | 0.00 | 0.00 | 0.00 | 86 | 1010.9 |
| 20260508095708 | 46 | 224 | 5.0 | 5.0 | 0.00 | 0.00 | 0.00 | 85 | 1010.9 |
| 20260508095206 | 46 | 221 | 5.0 | 6.0 | 0.00 | 0.00 | 0.00 | 86 | 1011.0 |
| 20260508094702 | 45 | 215 | 3.0 | 3.0 | 0.00 | 0.00 | 0.00 | 86 | 1010.9 |
| 20260508094159 | 45 | 209 | 4.0 | 5.0 | 0.00 | 0.00 | 0.00 | 87 | 1010.8 |
| 20260508093656 | 44 | 223 | 4.0 | 5.0 | 0.00 | 0.00 | 0.00 | 87 | 1010.8 |
| 20260508093154 | 43 | 207 | 5.0 | 5.0 | 0.00 | 0.00 | 0.00 | 88 | 1010.8 |
| 20260508092651 | 43 | 219 | 4.0 | 5.0 | 0.00 | 0.00 | 0.00 | 88 | 1010.9 |
| 20260508092149 | 43 | 214 | 5.0 | 5.0 | 0.00 | 0.00 | 0.00 | 88 | 1010.6 |
| 20260508091647 | 44 | 212 | 5.0 | 6.0 | 0.00 | 0.00 | 0.00 | 89 | 1010.8 |
| 20260508091143 | 44 | 206 | 3.0 | 3.0 | 0.00 | 0.00 | 0.00 | 87 | 1010.7 |
| 20260508090641 | 44 | 219 | 4.0 | 5.0 | 0.00 | 0.00 | 0.00 | 88 | 1010.9 |
| 20260508090138 | 44 | 215 | 4.0 | 5.0 | 0.00 | 0.00 | 0.00 | 88 | 1010.9 |
| 20260508085634 | 45 | 221 | 6.0 | 7.0 | 0.00 | 0.00 | 0.00 | 87 | 1010.9 |
| 20260508085132 | 45 | 225 | 5.0 | 6.0 | 0.00 | 0.00 | 0.00 | 87 | 1010.9 |
| 20260508084628 | 45 | 228 | 5.0 | 6.0 | 0.00 | 0.00 | 0.00 | 88 | 1010.8 |
| 20260508084125 | 45 | 224 | 6.0 | 6.0 | 0.00 | 0.00 | 0.00 | 87 | 1011.0 |
| 20260508083622 | 45 | 226 | 5.0 | 6.0 | 0.00 | 0.00 | 0.00 | 87 | 1010.8 |
| 20260508083120 | 45 | 234 | 5.0 | 6.0 | 0.00 | 0.00 | 0.00 | 87 | 1010.9 |
| 20260508082615 | 45 | 227 | 5.0 | 5.0 | 0.00 | 0.00 | 0.00 | 88 | 1010.9 |
| 20260508082113 | 45 | 228 | 3.0 | 3.0 | 0.00 | 0.00 | 0.00 | 88 | 1010.9 |
| 20260508081610 | 45 | 233 | 4.0 | 5.0 | 0.00 | 0.00 | 0.00 | 87 | 1011.1 |
| 20260508081106 | 45 | 225 | 4.0 | 5.0 | 0.00 | 0.00 | 0.00 | 86 | 1011.1 |
| 20260508080604 | 46 | 215 | 5.0 | 5.0 | 0.00 | 0.00 | 0.00 | 86 | 1011.1 |
| 20260508075558 | 46 | 230 | 6.0 | 6.0 | 0.00 | 0.00 | 0.00 | 85 | 1010.9 |
| 20260508075055 | 46 | 214 | 5.0 | 6.0 | 0.00 | 0.00 | 0.00 | 86 | 1011.2 |
| 20260508074553 | 45 | 217 | 5.0 | 6.0 | 0.00 | 0.00 | 0.00 | 86 | 1011.0 |
| 20260508074049 | 45 | 219 | 6.0 | 6.0 | 0.00 | 0.00 | 0.00 | 86 | 1011.3 |
| 20260508073547 | 45 | 211 | 6.0 | 6.0 | 0.00 | 0.00 | 0.00 | 86 | 1011.2 |
| 20260508073044 | 44 | 216 | 5.0 | 6.0 | 0.00 | 0.00 | 0.00 | 86 | 1011.1 |
| 20260508072540 | 44 | 216 | 5.0 | 6.0 | 0.00 | 0.00 | 0.00 | 86 | 1011.2 |
| 20260508072037 | 44 | 217 | 4.0 | 5.0 | 0.00 | 0.00 | 0.00 | 86 | 1011.1 |
| 20260508071535 | 44 | 223 | 4.0 | 5.0 | 0.00 | 0.00 | 0.00 | 85 | 1011.4 |
| 20260508071033 | 44 | 223 | 4.0 | 5.0 | 0.00 | 0.00 | 0.00 | 85 | 1011.1 |
| 20260508070530 | 44 | 218 | 3.0 | 3.0 | 0.00 | 0.00 | 0.00 | 85 | 1010.9 |
| 20260508070028 | 44 | 212 | 4.0 | 5.0 | 0.00 | 0.00 | 0.00 | 85 | 1011.3 |
| 20260508065526 | 43 | 216 | 4.0 | 5.0 | 0.00 | 0.00 | 0.00 | 85 | 1011.3 |
| 20260508065024 | 44 | 204 | 3.0 | 3.0 | 0.00 | 0.00 | 0.00 | 85 | 1011.4 |
| 20260508064521 | 44 | 207 | 4.0 | 5.0 | 0.00 | 0.00 | 0.00 | 84 | 1011.5 |
| 20260508064019 | 44 | 219 | 4.0 | 5.0 | 0.00 | 0.00 | 0.00 | 84 | 1011.4 |
| 20260508063516 | 44 | 221 | 5.0 | 5.0 | 0.00 | 0.00 | 0.00 | 83 | 1011.6 |
| 20260508063013 | 45 | 225 | 5.0 | 6.0 | 0.00 | 0.00 | 0.00 | 82 | 1011.3 |
| 20260508062511 | 46 | 216 | 6.0 | 6.0 | 0.00 | 0.00 | 0.00 | 81 | 1011.4 |
| 20260508062007 | 46 | 227 | 8.0 | 8.0 | 0.00 | 0.00 | 0.00 | 81 | 1011.5 |
| 20260508061506 | 45 | 225 | 7.0 | 8.0 | 0.00 | 0.00 | 0.00 | 81 | 1011.4 |
| 20260508061002 | 46 | 221 | 6.0 | 7.0 | 0.00 | 0.00 | 0.00 | 80 | 1011.6 |
| 20260508060459 | 46 | 218 | 6.0 | 7.0 | 0.00 | 0.00 | 0.00 | 80 | 1011.4 |
| 20260508055955 | 46 | 232 | 8.0 | 8.0 | 0.00 | 0.00 | 0.00 | 79 | 1011.4 |
| 20260508055452 | 47 | 218 | 9.0 | 9.0 | 0.00 | 0.00 | 0.00 | 79 | 1011.6 |
| 20260508054948 | 47 | 216 | 9.0 | 9.0 | 0.00 | 0.00 | 0.00 | 79 | 1011.5 |
| 20260508054445 | 47 | 208 | 11.0 | 11.0 | 0.00 | 0.00 | 0.00 | 77 | 1011.7 |
| 20260508053942 | 48 | 226 | 10.0 | 13.0 | 0.00 | 0.00 | 0.00 | 77 | 1011.8 |
| 20260508053439 | 48 | 227 | 11.0 | 13.0 | 0.00 | 0.00 | 0.00 | 77 | 1011.6 |
| 20260508052937 | 48 | 230 | 8.0 | 8.0 | 0.00 | 0.00 | 0.00 | 77 | 1011.5 |
| 20260508052434 | 48 | 226 | 9.0 | 9.0 | 0.00 | 0.00 | 0.00 | 76 | 1011.9 |
| 20260508051930 | 48 | 219 | 11.0 | 13.0 | 0.00 | 0.00 | 0.00 | 75 | 1011.5 |
| 20260508051426 | 48 | 225 | 11.0 | 11.0 | 0.00 | 0.00 | 0.00 | 75 | 1011.5 |
| 20260508050922 | 48 | 228 | 11.0 | 13.0 | 0.00 | 0.00 | 0.00 | 73 | 1011.7 |
| 20260508050419 | 49 | 205 | 11.0 | 13.0 | 0.00 | 0.00 | 0.00 | 72 | 1011.6 |
| 20260508045915 | 49 | 240 | 13.0 | 15.0 | 0.00 | 0.00 | 0.00 | 71 | 1011.5 |
| 20260508045413 | 49 | 213 | 10.0 | 10.0 | 0.00 | 0.00 | 0.00 | 69 | 1011.5 |
| 20260508044911 | 49 | 210 | 11.0 | 13.0 | 0.00 | 0.00 | 0.00 | 69 | 1011.6 |
| 20260508044408 | 49 | 207 | 8.0 | 8.0 | 0.00 | 0.00 | 0.00 | 69 | 1011.4 |
| 20260508043903 | 48 | 219 | 8.0 | 9.0 | 0.00 | 0.00 | 0.00 | 70 | 1011.5 |
| 20260508043401 | 48 | 208 | 7.0 | 7.0 | 0.00 | 0.00 | 0.00 | 71 | 1011.4 |
| 20260508042857 | 48 | 201 | 7.0 | 8.0 | 0.00 | 0.00 | 0.00 | 71 | 1011.5 |
| 20260508042355 | 49 | 226 | 8.0 | 9.0 | 0.00 | 0.00 | 0.00 | 70 | 1011.3 |
| 20260508041851 | 49 | 200 | 7.0 | 8.0 | 0.00 | 0.00 | 0.00 | 71 | 1011.6 |
| 20260508041347 | 49 | 216 | 8.0 | 8.0 | 0.00 | 0.00 | 0.00 | 70 | 1011.5 |
| 20260508040844 | 49 | 206 | 8.0 | 9.0 | 0.00 | 0.00 | 0.00 | 70 | 1011.5 |
| 20260508040341 | 49 | 203 | 7.0 | 7.0 | 0.00 | 0.00 | 0.00 | 70 | 1011.8 |
| 20260508035839 | 49 | 210 | 7.0 | 8.0 | 0.00 | 0.00 | 0.00 | 70 | 1011.6 |
| 20260508035336 | 49 | 205 | 7.0 | 8.0 | 0.00 | 0.00 | 0.00 | 70 | 1011.7 |
| 20260508034833 | 49 | 221 | 7.0 | 8.0 | 0.00 | 0.00 | 0.00 | 70 | 1011.7 |
| 20260508034330 | 49 | 209 | 8.0 | 9.0 | 0.00 | 0.00 | 0.00 | 69 | 1011.6 |
| 20260508033826 | 49 | 218 | 7.0 | 7.0 | 0.00 | 0.00 | 0.00 | 69 | 1011.7 |
| 20260508033325 | 49 | 224 | 8.0 | 9.0 | 0.00 | 0.00 | 0.00 | 69 | 1011.9 |
| 20260508032822 | 49 | 217 | 7.0 | 8.0 | 0.00 | 0.00 | 0.00 | 68 | 1012.0 |
| 20260508032319 | 50 | 222 | 8.0 | 8.0 | 0.00 | 0.00 | 0.00 | 67 | 1011.7 |
| 20260508031816 | 50 | 222 | 8.0 | 9.0 | 0.00 | 0.00 | 0.00 | 67 | 1011.8 |
| 20260508031313 | 49 | 202 | 7.0 | 8.0 | 0.00 | 0.00 | 0.00 | 67 | 1011.8 |
| 20260508030809 | 49 | 222 | 7.0 | 8.0 | 0.00 | 0.00 | 0.00 | 67 | 1012.0 |
| 20260508030307 | 50 | 217 | 9.0 | 9.0 | 0.00 | 0.00 | 0.00 | 65 | 1012.0 |
| 20260508025803 | 50 | 216 | 7.0 | 8.0 | 0.00 | 0.00 | 0.00 | 66 | 1012.0 |
| 20260508025300 | 50 | 211 | 9.0 | 10.0 | 0.00 | 0.00 | 0.00 | 65 | 1012.0 |
| 20260508024756 | 50 | 218 | 8.0 | 8.0 | 0.00 | 0.00 | 0.00 | 66 | 1012.0 |
| 20260508024253 | 50 | 229 | 7.0 | 7.0 | 0.00 | 0.00 | 0.00 | 65 | 1011.7 |
| 20260508023750 | 50 | 226 | 7.0 | 8.0 | 0.00 | 0.00 | 0.00 | 65 | 1012.1 |
| 20260508023247 | 50 | 230 | 8.0 | 9.0 | 0.00 | 0.00 | 0.00 | 64 | 1011.9 |
| 20260508022743 | 50 | 230 | 10.0 | 10.0 | 0.00 | 0.00 | 0.00 | 64 | 1012.2 |
| 20260508022240 | 50 | 222 | 10.0 | 11.0 | 0.00 | 0.00 | 0.00 | 64 | 1012.1 |
| 20260508021737 | 50 | 217 | 10.0 | 10.0 | 0.00 | 0.00 | 0.00 | 63 | 1012.3 |
| 20260508021232 | 50 | 226 | 11.0 | 13.0 | 0.00 | 0.00 | 0.00 | 63 | 1012.1 |
| 20260508020730 | 50 | 224 | 8.0 | 9.0 | 0.00 | 0.00 | 0.00 | 63 | 1012.0 |
| 20260508020227 | 50 | 227 | 9.0 | 10.0 | 0.00 | 0.00 | 0.00 | 62 | 1012.0 |
| 20260508015724 | 51 | 246 | 12.0 | 14.0 | 0.00 | 0.00 | 0.00 | 62 | 1012.0 |
| 20260508015221 | 51 | 228 | 12.0 | 14.0 | 0.00 | 0.00 | 0.00 | 61 | 1012.1 |
| 20260508014718 | 51 | 226 | 13.0 | 14.0 | 0.00 | 0.00 | 0.00 | 60 | 1011.8 |
| 20260508014215 | 51 | 228 | 15.0 | 17.0 | 0.00 | 0.00 | 0.00 | 60 | 1011.8 |
| 20260508013710 | 51 | 215 | 13.0 | 15.0 | 0.00 | 0.00 | 0.00 | 59 | 1011.9 |
| 20260508013207 | 51 | 217 | 16.0 | 17.0 | 0.00 | 0.00 | 0.00 | 57 | 1011.8 |
| 20260508012705 | 51 | 214 | 15.0 | 17.0 | 0.00 | 0.00 | 0.00 | 57 | 1011.6 |
| 20260508012201 | 52 | 226 | 20.0 | 21.0 | 0.00 | 0.00 | 0.00 | 55 | 1011.7 |
| 20260508011700 | 52 | 218 | 21.0 | 22.0 | 0.00 | 0.00 | 0.00 | 54 | 1011.6 |
| 20260508011157 | 52 | 232 | 18.0 | 20.0 | 0.00 | 0.00 | 0.00 | 54 | 1011.5 |
| 20260508010653 | 53 | 221 | 22.0 | 25.0 | 0.00 | 0.00 | 0.00 | 53 | 1011.5 |
| 20260508010151 | 53 | 223 | 22.0 | 25.0 | 0.00 | 0.00 | 0.00 | 51 | 1011.7 |
| 20260508005648 | 53 | 233 | 23.0 | 27.0 | 0.00 | 0.00 | 0.00 | 50 | 1011.6 |
| 20260508005145 | 53 | 209 | 16.0 | 18.0 | 0.00 | 0.00 | 0.00 | 50 | 1011.4 |
| 20260508004640 | 54 | 248 | 19.0 | 21.0 | 0.00 | 0.00 | 0.00 | 47 | 1011.3 |
| 20260508004137 | 55 | 220 | 17.0 | 22.0 | 0.00 | 0.00 | 0.00 | 46 | 1011.0 |
| 20260508003633 | 55 | 229 | 19.0 | 21.0 | 0.00 | 0.00 | 0.00 | 42 | 1011.2 |
| 20260508003131 | 55 | 237 | 9.0 | 10.0 | 0.00 | 0.00 | 0.00 | 41 | 1011.4 |
| 20260508002627 | 56 | 238 | 8.0 | 8.0 | 0.00 | 0.00 | 0.00 | 40 | 1011.0 |
| 20260508002125 | 56 | 246 | 9.0 | 10.0 | 0.00 | 0.00 | 0.00 | 38 | 1011.0 |
| 20260508001620 | 56 | 242 | 13.0 | 14.0 | 0.00 | 0.00 | 0.00 | 36 | 1011.1 |
| 20260508001117 | 56 | 249 | 14.0 | 15.0 | 0.00 | 0.00 | 0.00 | 37 | 1011.0 |
| 20260508000612 | 56 | 246 | 10.0 | 11.0 | 0.00 | 0.00 | 0.00 | 38 | 1010.9 |
| 20260508000110 | 56 | 240 | 3.0 | 3.0 | 0.00 | 0.00 | 0.00 | 40 | 1010.9 |
| 20260507235607 | 56 | 253 | 4.0 | 5.0 | 0.00 | 0.00 | 0.00 | 42 | 1011.0 |
| 20260507235104 | 56 | 238 | 3.0 | 5.0 | 0.00 | 0.00 | 0.00 | 39 | 1010.9 |
| 20260507234600 | 56 | 275 | 3.0 | 3.0 | 0.00 | 0.00 | 0.00 | 39 | 1011.0 |
| 20260507234057 | 56 | 243 | 4.0 | 5.0 | 0.00 | 0.00 | 0.00 | 38 | 1011.0 |
| 20260507233554 | 56 | 268 | 5.0 | 6.0 | 0.00 | 0.00 | 0.00 | 38 | 1010.8 |
| 20260507233053 | 56 | 231 | 6.0 | 8.0 | 0.00 | 0.00 | 0.00 | 37 | 1011.0 |
| 20260507232548 | 57 | 267 | 8.0 | 9.0 | 0.00 | 0.00 | 0.00 | 35 | 1011.0 |
| 20260507232046 | 57 | 293 | 7.0 | 8.0 | 0.00 | 0.00 | 0.00 | 35 | 1011.0 |
| 20260507231542 | 58 | 345 | 5.0 | 8.0 | 0.00 | 0.00 | 0.00 | 33 | 1011.0 |
| 20260507231040 | 58 | 298 | 6.0 | 8.0 | 0.00 | 0.00 | 0.00 | 31 | 1011.0 |
| 20260507230536 | 58 | 246 | 8.0 | 9.0 | 0.00 | 0.00 | 0.00 | 33 | 1011.1 |
| 20260507230033 | 58 | 251 | 5.0 | 7.0 | 0.00 | 0.00 | 0.00 | 33 | 1010.8 |
| 20260507225528 | 57 | 306 | 6.0 | 7.0 | 0.00 | 0.00 | 0.00 | 34 | 1011.0 |
| 20260507225024 | 57 | 302 | 5.0 | 6.0 | 0.00 | 0.00 | 0.00 | 35 | 1011.1 |
| 20260507224520 | 57 | 270 | 10.0 | 13.0 | 0.00 | 0.00 | 0.00 | 36 | 1011.0 |
| 20260507224017 | 58 | 250 | 10.0 | 13.0 | 0.00 | 0.00 | 0.00 | 33 | 1011.0 |
| 20260507223513 | 58 | 289 | 8.0 | 9.0 | 0.00 | 0.00 | 0.00 | 32 | 1011.0 |
| 20260507223010 | 57 | 294 | 7.0 | 8.0 | 0.00 | 0.00 | 0.00 | 36 | 1011.3 |
| 20260507222507 | 57 | 317 | 8.0 | 9.0 | 0.00 | 0.00 | 0.00 | 32 | 1011.3 |
| 20260507222003 | 58 | 295 | 10.0 | 11.0 | 0.00 | 0.00 | 0.00 | 31 | 1011.3 |
| 20260507221500 | 59 | 314 | 10.0 | 11.0 | 0.00 | 0.00 | 0.00 | 31 | 1011.3 |
| 20260507220956 | 59 | 288 | 5.0 | 8.0 | 0.00 | 0.00 | 0.00 | 31 | 1011.1 |
| 20260507220454 | 59 | 259 | 5.0 | 6.0 | 0.00 | 0.00 | 0.00 | 30 | 1011.1 |
| 20260507215951 | 57 | 359 | 9.0 | 9.0 | 0.00 | 0.00 | 0.00 | 31 | 1011.3 |
| 20260507215447 | 57 | 304 | 9.0 | 10.0 | 0.00 | 0.00 | 0.00 | 32 | 1011.1 |
| 20260507214945 | 58 | 285 | 8.0 | 10.0 | 0.00 | 0.00 | 0.00 | 31 | 1011.1 |
| 20260507214442 | 58 | 316 | 11.0 | 15.0 | 0.00 | 0.00 | 0.00 | 35 | 1011.2 |
| 20260507213938 | 58 | 291 | 9.0 | 10.0 | 0.00 | 0.00 | 0.00 | 33 | 1010.9 |
| 20260507213434 | 57 | 314 | 10.0 | 11.0 | 0.00 | 0.00 | 0.00 | 32 | 1011.0 |
| 20260507212931 | 57 | 337 | 15.0 | 16.0 | 0.00 | 0.00 | 0.00 | 32 | 1010.9 |
| 20260507212421 | 57 | 304 | 10.0 | 10.0 | 0.00 | 0.00 | 0.00 | 33 | 1010.8 |
| 20260507211918 | 57 | 318 | 11.0 | 14.0 | 0.00 | 0.00 | 0.00 | 34 | 1010.9 |
| 20260507211415 | 58 | 287 | 18.0 | 20.0 | 0.00 | 0.00 | 0.00 | 30 | 1011.0 |
| 20260507210912 | 58 | 316 | 11.0 | 13.0 | 0.00 | 0.00 | 0.00 | 34 | 1011.2 |
| 20260507210409 | 57 | 302 | 14.0 | 15.0 | 0.00 | 0.00 | 0.00 | 34 | 1011.4 |
| 20260507205905 | 59 | 307 | 11.0 | 13.0 | 0.00 | 0.00 | 0.00 | 34 | 1011.2 |
| 20260507205403 | 58 | 296 | 17.0 | 22.0 | 0.00 | 0.00 | 0.00 | 33 | 1011.3 |
| 20260507204859 | 57 | 300 | 12.0 | 15.0 | 0.00 | 0.00 | 0.00 | 34 | 1011.2 |
| 20260507204355 | 57 | 310 | 17.0 | 20.0 | 0.00 | 0.00 | 0.00 | 33 | 1011.2 |
| 20260507203854 | 58 | 313 | 19.0 | 21.0 | 0.00 | 0.00 | 0.00 | 32 | 1011.3 |
| 20260507203351 | 58 | 283 | 14.0 | 18.0 | 0.00 | 0.00 | 0.00 | 33 | 1011.3 |
| 20260507202847 | 58 | 297 | 15.0 | 21.0 | 0.00 | 0.00 | 0.00 | 33 | 1011.3 |
| 20260507202343 | 58 | 314 | 17.0 | 20.0 | 0.00 | 0.00 | 0.00 | 34 | 1011.4 |
| 20260507201839 | 57 | 315 | 15.0 | 18.0 | 0.00 | 0.00 | 0.00 | 35 | 1011.4 |
| 20260507201335 | 57 | 322 | 17.0 | 21.0 | 0.00 | 0.00 | 0.00 | 35 | 1011.5 |
| 20260507200831 | 58 | 302 | 15.0 | 18.0 | 0.00 | 0.00 | 0.00 | 34 | 1011.4 |
| 20260507200327 | 57 | 313 | 9.0 | 10.0 | 0.00 | 0.00 | 0.00 | 37 | 1011.5 |
| 20260507195823 | 56 | 303 | 15.0 | 16.0 | 0.00 | 0.00 | 0.00 | 37 | 1011.4 |
| 20260507195321 | 56 | 343 | 14.0 | 16.0 | 0.00 | 0.00 | 0.00 | 38 | 1011.5 |
| 20260507194818 | 56 | 336 | 14.0 | 18.0 | 0.00 | 0.00 | 0.00 | 36 | 1011.7 |
| 20260507194314 | 56 | 294 | 11.0 | 13.0 | 0.00 | 0.00 | 0.00 | 37 | 1011.6 |
| 20260507193811 | 57 | 300 | 12.0 | 15.0 | 0.00 | 0.00 | 0.00 | 36 | 1011.6 |
| 20260507193308 | 57 | 312 | 8.0 | 9.0 | 0.00 | 0.00 | 0.00 | 35 | 1011.7 |
| 20260507192803 | 57 | 314 | 12.0 | 14.0 | 0.00 | 0.00 | 0.00 | 33 | 1011.6 |
| 20260507192301 | 56 | 303 | 9.0 | 13.0 | 0.00 | 0.00 | 0.00 | 36 | 1011.6 |
| 20260507191757 | 56 | 318 | 10.0 | 11.0 | 0.00 | 0.00 | 0.00 | 37 | 1011.7 |
| 20260507191253 | 57 | 302 | 14.0 | 15.0 | 0.00 | 0.00 | 0.00 | 35 | 1011.8 |
| 20260507190750 | 58 | 240 | 15.0 | 21.0 | 0.00 | 0.00 | 0.00 | 34 | 1011.6 |
| 20260507190249 | 57 | 6 | 15.0 | 18.0 | 0.00 | 0.00 | 0.00 | 35 | 1011.6 |
| 20260507185747 | 57 | 359 | 15.0 | 18.0 | 0.00 | 0.00 | 0.00 | 35 | 1011.7 |
| 20260507185243 | 57 | 305 | 14.0 | 16.0 | 0.00 | 0.00 | 0.00 | 34 | 1011.9 |
| 20260507184741 | 58 | 284 | 14.0 | 16.0 | 0.00 | 0.00 | 0.00 | 35 | 1011.7 |
| 20260507184239 | 57 | 258 | 13.0 | 18.0 | 0.00 | 0.00 | 0.00 | 34 | 1011.9 |
| 20260507183735 | 55 | 15 | 11.0 | 14.0 | 0.00 | 0.00 | 0.00 | 37 | 1011.8 |
| 20260507183232 | 56 | 295 | 12.0 | 16.0 | 0.00 | 0.00 | 0.00 | 37 | 1011.8 |
| 20260507182730 | 57 | 265 | 9.0 | 11.0 | 0.00 | 0.00 | 0.00 | 37 | 1011.9 |
| 20260507182225 | 56 | 290 | 8.0 | 11.0 | 0.00 | 0.00 | 0.00 | 36 | 1012.0 |
| 20260507181722 | 57 | 296 | 20.0 | 22.0 | 0.00 | 0.00 | 0.00 | 36 | 1012.0 |
| 20260507181218 | 56 | 339 | 9.0 | 11.0 | 0.00 | 0.00 | 0.00 | 37 | 1011.9 |
| 20260507180715 | 56 | 326 | 13.0 | 17.0 | 0.00 | 0.00 | 0.00 | 41 | 1011.9 |
| 20260507180212 | 56 | 227 | 13.0 | 15.0 | 0.00 | 0.00 | 0.00 | 38 | 1011.8 |
| 20260507175707 | 56 | 257 | 13.0 | 15.0 | 0.00 | 0.00 | 0.00 | 38 | 1012.0 |